Weather Roundup
Issued by NWS Chicago, IL

Home | Current Version | Previous Version | Graphics & Text | Print | Product List | Glossary On
Versions: 1 2 3 4 5 6 7 8 9 10 11 12 13 14 15 16 17 18 19 20 21 22 23 24 25 26 27 28 29 30 31 32 33 34 35 36 37 38 39 40 41 42 43 44 45 46 47 48 49 50
000
NZUS59 KLOT 160700
HRRLOT

CHICAGO AREA WEATHER ROUNDUP
NATIONAL WEATHER SERVICE CHICAGO/ROMEOVILLE IL
200 AM CDT WED APR 16 2014

NOTE: "FAIR" INDICATES FEW OR NO CLOUDS BELOW 12,000 FEET WITH NO
SIGNIFICANT WEATHER AND/OR OBSTRUCTIONS TO VISIBILITY.

* THESE STATIONS ARE NOT UNDER NWS QUALITY CONTROL. THEY ALSO MAY NOT
  REPORT WEATHER SUCH AS PRECIPITATION OR FOG.

ILZ005-006-012>014-019>023-160800-
NORTHEAST ILLINOIS

CITY           SKY/WX    TMP DP  RH WIND       PRES   REMARKS
OHARE          CLEAR     29  19  66 S6        30.22R WCI  23
MIDWAY         CLEAR     32  21  64 S6        30.23S WCI  26
AURORA         CLEAR     28  21  75 SE6       30.22R WCI  22
WAUKEGAN       CLEAR     24  19  81 CALM      30.22R
DUPAGE AIRPORT CLEAR     27  20  75 S6        30.21R WCI  20
WHEELING       CLEAR     28  22  78 CALM      30.24R
NORTHERLY IS     N/A     33  20  59 S3          N/A
$$

WIZ051-052-058>065-066-070>072-160800-
SOUTHEAST WISCONSIN

CITY           SKY/WX    TMP DP  RH WIND       PRES   REMARKS
MILWAUKEE      PTCLDY    26  20  77 CALM      30.23R
KENOSHA*       CLEAR     25  20  81 CALM      30.22R
RACINE*        CLEAR     26  22  84 CALM      30.24R
$$

INZ001>003-010>013-019-020-160800-
NORTHWEST INDIANA

CITY           SKY/WX    TMP DP  RH WIND       PRES   REMARKS
GARY*          NOT AVBL
MICHIGAN CITY* NOT AVBL
RENSSELAER*    NOT AVBL
VALPARAISO     CLEAR     24  18  77 CALM      30.25R
$$

LMZ740>746-160800-
SOUTHERN LAKE MICHIGAN

STATION/POSITION TIME  SKY/WX   TEMP WIND        PRES    VSBY
                                AIR  DIR/SP/G
                 (UTC)          (F)  (DEG/KT/KT) (MB)    (MI)
HARRISON CRIB    0600            35  200/ 12/ 14   N/A
BURNHAM HARBOR   0700            33  180/  4/  6   N/A
CALUMET HARBOR   0600            32  170/  5/  7 1024.4R
BURNS HARBOR     NOT AVBL
MICHIGAN CITY    0600            30  120/  8/ 10   N/A
$$

ABBREVIATIONS USED IN REMARKS
   TC - TEMPERATURE IN CELSIUS
  WCI - WIND CHILL INDEX
   HX - HEAT INDEX
  VSB - VISIBILITY
$$



USA.gov is the U.S. government's official web portal to all federal, state and local government web resources and services.